1508464800.56,3710,14.63,73874.5,-0.51,-33.95,-35.77,0,*5B
1508464801.82,3711,14.63,73872.8,-0.51,-34.07,-35.95,0,*5A
1508464803.05,3712,14.69,73878.5,-0.51,-34.07,-36.07,0,*51
1508464804.24,3713,14.63,73876.3,-0.53,-34.07,-36.07,0,*52
1508464805.49,3714,14.63,73878.3,-0.53,-34.19,-36.13,0,*5F
1508464806.69,3715,14.63,73876.0,-0.53,-34.13,-36.01,0,*57
1508464807.94,3716,14.63,73872.0,-0.55,-33.95,-35.83,0,*52
1508464809.2,3717,14.69,73876.5,-0.53,-34.01,-35.95,0,*58
1508464810.44,3718,14.63,73876.3,-0.55,-33.83,-35.65,0,*53
1508464811.68,3719,14.69,73876.0,-0.53,-33.27,-35.23,0,*58
1508464812.9,3720,14.63,73874.5,-0.53,-33.61,-35.59,0,*5D
1508464814.15,3721,14.63,73872.8,-0.55,-34.13,-35.95,0,*58
1508464815.38,3722,14.63,73874.5,-0.53,-34.01,-36.01,0,*50
1508464816.6,3723,14.63,73872.5,-0.53,-33.73,-35.59,0,*5D
1508464817.83,3724,14.63,73874.3,-0.55,-33.37,-35.29,0,*5B
1508464819.1,3725,14.63,73872.8,-0.55,-33.27,-35.23,0,*51
1508464820.35,3726,14.69,73874.3,-0.55,-33.73,-35.77,0,*52
1508464821.58,3727,14.63,73872.0,-0.55,-33.83,-35.77,0,*5C
1508464822.86,3728,14.63,73870.8,-0.55,-34.01,-35.83,0,*55
1508464824.13,3729,14.63,73874.3,-0.55,-33.73,-35.65,0,*5E
1508464825.35,3730,14.69,73872.8,-0.53,-33.73,-35.59,0,*5F
1508464826.58,3731,14.63,73874.0,-0.55,-33.95,-35.77,0,*5C
1508464827.83,3732,14.63,73874.5,-0.55,-33.83,-35.83,0,*53
1508464829.05,3733,14.69,73874.0,-0.55,-33.95,-35.77,0,*5E
1508464830.28,3734,14.63,73874.0,-0.55,-33.37,-35.29,0,*5A
1508464831.51,3735,14.63,73874.0,-0.55,-33.83,-35.77,0,*5F
1508464832.75,3736,14.63,73874.3,-0.57,-33.77,-35.65,0,*56
1508464833.99,3737,14.63,73868.3,-0.55,-33.61,-35.59,0,*5D
1508464835.23,3738,14.63,73870.5,-0.55,-33.83,-35.65,0,*51
1508464836.48,3739,14.69,73874.3,-0.55,-33.77,-35.77,0,*58
1508464837.73,3740,14.63,73874.3,-0.53,-33.73,-35.65,0,*57
1508464839.01,3741,14.63,73874.8,-0.55,-34.01,-35.83,0,*5A
1508464840.24,3742,14.63,73874.3,-0.55,-34.13,-36.01,0,*53
1508464841.51,3743,14.63,73874.5,-0.55,-34.01,-35.83,0,*58
1508464842.73,3744,14.63,73876.0,-0.57,-33.89,-35.71,0,*57
1508464843.93,3745,14.63,73870.5,-0.57,-33.83,-35.71,0,*5C
1508464845.17,3746,14.63,73872.8,-0.55,-33.95,-35.83,0,*57
1508464846.45,3747,14.63,73876.3,-0.55,-34.01,-35.95,0,*5B
1508464847.67,3748,14.63,73876.8,-0.57,-34.07,-35.89,0,*5D
1508464848.89,3749,14.63,73874.0,-0.57,-33.89,-35.89,0,*5D
1508464850.14,3750,14.63,73876.5,-0.57,-33.89,-35.83,0,*5F
1508464851.36,3751,14.63,73878.0,-0.55,-33.95,-35.77,0,*5A
1508464852.65,3752,14.63,73874.3,-0.59,-34.01,-35.83,0,*54
1508464853.93,3753,14.63,73876.5,-0.59,-34.01,-35.83,0,*55
1508464855.17,3754,14.63,73876.0,-0.59,-34.07,-35.89,0,*5E
1508464856.42,3755,14.63,73872.5,-0.55,-33.73,-35.59,0,*5A
1508464857.67,3756,14.63,73876.5,-0.59,-33.49,-35.47,0,*53
1508464858.89,3757,14.63,73872.8,-0.57,-33.61,-35.47,0,*56
1508464860.14,3758,14.63,73876.0,-0.55,-33.95,-35.83,0,*58
1508464861.37,3759,14.63,73876.3,-0.57,-34.01,-35.89,0,*5B
1508464862.63,3760,14.63,73876.5,-0.59,-34.01,-35.89,0,*5F
1508464863.87,3761,14.63,73878.8,-0.59,-34.07,-35.89,0,*58
1508464865.15,3762,14.63,73878.0,-0.59,-33.89,-35.83,0,*50
1508464866.38,3763,14.63,73876.3,-0.57,-33.89,-35.89,0,*55
1508464867.6,3764,14.63,73876.8,-0.57,-33.83,-35.83,0,*52
1508464868.86,3765,14.63,73874.5,-0.59,-33.83,-35.83,0,*5D
1508464870.12,3766,14.63,73876.0,-0.59,-34.01,-35.89,0,*59
1508464871.35,3767,14.63,73876.3,-0.57,-34.01,-35.89,0,*56
1508464872.6,3768,14.63,73878.8,-0.59,-33.89,-35.71,0,*57
1508464873.88,3769,14.63,73878.0,-0.59,-34.01,-35.83,0,*5C
1508464875.11,3770,14.63,73874.8,-0.57,-34.01,-36.01,0,*53
1508464876.35,3771,14.63,73876.3,-0.59,-34.07,-36.01,0,*5A
1508464877.57,3772,14.63,73870.5,-0.61,-34.13,-36.13,0,*54
1508464878.83,3773,14.63,73872.8,-0.59,-34.01,-36.01,0,*5E
1508464880.06,3774,14.63,73874.3,-0.61,-33.89,-35.89,0,*56
1508464881.26,3775,14.63,73872.0,-0.61,-33.95,-35.89,0,*5A
1508464882.49,3776,14.63,73874.5,-0.61,-33.89,-35.89,0,*54
1508464883.69,3777,14.63,73878.0,-0.61,-34.13,-36.07,0,*54
1508464884.88,3778,14.63,73876.8,-0.61,-33.83,-35.71,0,*57
1508464886.13,3779,14.63,73874.8,-0.59,-33.27,-35.17,0,*53
1508464887.38,3780,14.63,73878.0,-0.59,-33.31,-35.29,0,*5F
1508464888.61,3781,14.63,73868.8,-0.59,-33.15,-35.01,0,*52
1508464889.86,3782,14.63,73874.5,-0.59,-33.09,-34.89,0,*5D
1508464891.1,3783,14.63,73872.3,-0.57,-33.09,-34.95,0,*5F
1508464892.35,3784,14.63,73874.0,-0.59,-33.27,-35.17,0,*51
1508464893.55,3785,14.63,73876.5,-0.57,-33.83,-35.71,0,*50
1508464894.82,3786,14.63,73870.3,-0.59,-33.61,-35.53,0,*51
1508464896.05,3787,14.63,73874.3,-0.57,-34.01,-36.01,0,*5B
1508464897.28,3788,14.63,73872.5,-0.57,-34.01,-35.89,0,*57
1508464898.54,3789,14.63,73874.0,-0.59,-33.31,-35.29,0,*56
1508464899.76,3790,14.63,73870.3,-0.57,-33.27,-35.01,0,*5D
1508464900.95,3791,14.63,73872.8,-0.57,-33.15,-35.17,0,*5A
1508464902.19,3792,14.63,73874.8,-0.57,-33.89,-35.83,0,*51
1508464903.42,3793,14.63,73874.3,-0.59,-34.07,-36.07,0,*50
1508464904.63,3794,14.63,73874.0,-0.57,-34.07,-35.89,0,*5C
1508464905.88,3795,14.63,73872.5,-0.59,-34.19,-36.07,0,*59
1508464907.1,3796,14.63,73868.5,-0.57,-34.19,-36.19,0,*5B
1508464908.35,3797,14.63,73872.0,-0.57,-34.35,-36.25,0,*5B
1508464909.57,3798,14.63,73870.0,-0.57,-34.35,-36.19,0,*5B
1508464910.82,3799,14.63,73870.5,-0.59,-34.35,-36.07,0,*5B
1508464912.1,3800,14.63,73874.0,-0.59,-34.35,-36.25,0,*54
1508464913.32,3801,14.63,73874.3,-0.59,-34.41,-36.19,0,*59
1508464914.55,3802,14.63,73874.3,-0.61,-34.41,-36.25,0,*5E
1508464915.74,3803,14.63,73874.5,-0.61,-34.13,-36.07,0,*58
1508464916.98,3804,14.63,73872.8,-0.61,-34.07,-35.95,0,*52
1508464918.21,3805,14.63,73874.0,-0.63,-34.07,-35.89,0,*5C
1508464919.44,3806,14.63,73874.8,-0.63,-34.07,-36.07,0,*5A
1508464920.7,3807,14.63,73876.8,-0.63,-34.13,-35.95,0,*56
1508464921.93,3808,14.63,73872.3,-0.63,-33.83,-35.77,0,*5B
1508464923.16,3809,14.63,73872.0,-0.61,-33.73,-35.89,0,*56
1508464924.41,3810,14.63,73874.5,-0.63,-34.25,-36.25,0,*5D
1508464925.66,3811,14.63,73876.0,-0.63,-34.13,-36.13,0,*5C
1508464926.92,3812,14.63,73872.3,-0.63,-34.07,-35.95,0,*57
1508464928.12,3813,14.63,73878.8,-0.61,-33.95,-35.77,0,*54
1508464929.33,3814,14.63,73878.5,-0.61,-33.83,-35.77,0,*54
1508464930.55,3815,14.63,73878.3,-0.63,-33.67,-35.59,0,*51
1508464931.78,3816,14.63,73876.5,-0.61,-33.73,-35.59,0,*55
1508464932.97,3817,14.63,73878.0,-0.61,-34.07,-36.07,0,*58
1508464934.2,3818,14.63,73878.3,-0.63,-34.13,-36.07,0,*50
1508464935.42,3819,14.63,73878.8,-0.63,-34.13,-36.07,0,*51
1508464936.67,3820,14.63,73872.0,-0.63,-33.95,-35.95,0,*5A
1508464937.91,3821,14.63,73876.3,-0.63,-33.83,-35.77,0,*50
1508464939.14,3822,14.63,73878.3,-0.63,-34.07,-35.89,0,*59
1508464940.4,3823,14.63,73878.5,-0.63,-34.07,-35.95,0,*55
1508464941.62,3824,14.63,73874.8,-0.63,-34.13,-36.07,0,*5F
1508464942.9,3825,14.63,73874.5,-0.67,-34.19,-36.13,0,*55
1508464944.14,3826,14.63,73878.0,-0.67,-34.31,-36.19,0,*56
1508464945.42,3827,14.63,73874.8,-0.67,-34.19,-36.13,0,*57
1508464946.67,3828,14.63,73874.0,-0.67,-34.19,-36.01,0,*5B
1508464947.96,3829,14.63,73872.5,-0.67,-34.01,-35.95,0,*5D
1508464949.23,3830,14.63,73874.0,-0.67,-33.77,-35.83,0,*54
1508464950.49,3831,14.63,73874.8,-0.67,-33.89,-35.77,0,*5F
1508464951.71,3832,14.63,73876.0,-0.69,-33.83,-35.83,0,*53
1508464952.96,3833,14.63,73876.0,-0.63,-33.73,-35.59,0,*50
1508464954.19,3834,14.63,73878.3,-0.63,-33.67,-35.59,0,*52
1508464955.46,3835,14.63,73880.0,-0.67,-33.73,-35.65,0,*5D
1508464956.72,3836,14.63,73878.5,-0.67,-33.77,-35.77,0,*59
1508464957.97,3837,14.63,73876.8,-0.67,-33.95,-35.95,0,*58
1508464959.19,3838,14.63,73872.0,-0.63,-33.67,-35.59,0,*5E
1508464960.45,3839,14.63,73878.0,-0.63,-33.67,-35.41,0,*56
1508464961.66,3840,14.63,73878.3,-0.63,-33.55,-35.59,0,*50
1508464962.89,3841,14.63,73878.8,-0.63,-33.83,-35.77,0,*56
1508464964.14,3842,14.63,73878.3,-0.67,-33.61,-35.59,0,*51
1508464965.38,3843,14.63,73878.3,-0.63,-33.55,-35.53,0,*59
1508464966.61,3844,14.63,73876.8,-0.63,-33.83,-35.77,0,*53
1508464967.87,3845,14.63,73876.8,-0.63,-33.89,-35.89,0,*59
1508464969.12,3846,14.63,73876.0,-0.63,-33.89,-35.89,0,*5A
1508464970.37,3847,14.63,73876.0,-0.63,-33.55,-35.53,0,*5D
1508464971.63,3848,14.63,73876.8,-0.63,-34.07,-35.95,0,*58
1508464972.86,3849,14.63,73878.5,-0.63,-33.83,-35.77,0,*5E
1508464974.08,3850,14.63,73876.8,-0.63,-33.67,-35.71,0,*5A
1508464975.32,3851,14.63,73878.5,-0.63,-34.07,-35.89,0,*5D
1508464976.54,3852,14.63,73882.5,-0.63,-34.07,-36.07,0,*5B
1508464977.76,3853,14.63,73876.5,-0.63,-33.95,-36.07,0,*56
1508464978.98,3854,14.63,73878.3,-0.63,-34.25,-36.31,0,*58
1508464980.21,3855,14.63,73876.8,-0.63,-34.07,-36.07,0,*5C
1508464981.43,3856,14.63,73880.0,-0.63,-33.67,-35.59,0,*56
1508464982.7,3857,14.63,73876.0,-0.67,-33.61,-35.53,0,*5F
1508464983.95,3858,14.63,73874.5,-0.67,-33.37,-35.41,0,*50
1508464985.23,3859,14.63,73874.5,-0.67,-33.77,-35.83,0,*5B
1508464986.45,3860,14.63,73872.0,-0.69,-33.83,-35.83,0,*54
1508464987.71,3861,14.63,73878.3,-0.67,-33.77,-35.89,0,*5A
1508464988.91,3862,14.63,73874.0,-0.69,-34.07,-36.07,0,*52
1508464990.19,3863,14.63,73874.8,-0.67,-34.01,-35.95,0,*53
1508464991.43,3864,14.63,73874.0,-0.67,-34.13,-36.01,0,*59
1508464992.7,3865,14.63,73874.5,-0.67,-33.89,-35.95,0,*52
1508464993.95,3866,14.63,73872.5,-0.67,-34.13,-36.13,0,*58
1508464995.21,3867,14.63,73872.0,-0.67,-34.19,-36.01,0,*50
1508464996.46,3868,14.63,73874.3,-0.63,-33.95,-35.95,0,*56
1508464997.74,3869,14.63,73874.0,-0.63,-33.49,-35.41,0,*5F
1508464998.98,3870,14.63,73874.5,-0.63,-33.15,-35.07,0,*5C
1508465000.22,3871,14.63,73876.8,-0.67,-33.61,-35.59,0,*51
1508465001.49,3872,14.63,73874.3,-0.67,-33.43,-35.41,0,*5B
1508465002.73,3873,14.63,73872.8,-0.69,-33.61,-35.65,0,*52
1508465004.01,3874,14.63,73874.8,-0.67,-33.73,-35.65,0,*58
1508465005.29,3875,14.63,73874.3,-0.67,-33.73,-35.65,0,*59
1508465006.51,3876,14.63,73876.0,-0.63,-33.55,-35.59,0,*55
1508465007.73,3877,14.63,73868.5,-0.63,-33.95,-35.89,0,*55
1508465008.99,3878,14.63,73872.5,-0.63,-33.89,-35.77,0,*56
1508465010.21,3879,14.63,73874.5,-0.63,-34.13,-36.07,0,*57
1508465011.46,3880,14.63,73868.3,-0.67,-34.19,-36.19,0,*50
1508465012.73,3881,14.63,73872.3,-0.67,-34.19,-36.13,0,*5B
1508465013.95,3882,14.63,73872.8,-0.67,-33.55,-35.47,0,*55
1508465015.2,3883,14.63,73872.8,-0.67,-33.73,-35.59,0,*5F
1508465016.45,3884,14.63,73874.5,-0.67,-33.61,-35.59,0,*5B
1508465017.7,3885,14.63,73878.0,-0.67,-33.95,-35.83,0,*56
1508465018.92,3886,14.63,73872.3,-0.67,-33.95,-35.77,0,*5E
1508465020.17,3887,14.63,73872.0,-0.67,-33.61,-35.59,0,*58
1508465021.41,3888,14.63,73872.8,-0.67,-33.43,-35.47,0,*58
1508465022.68,3889,14.63,73874.8,-0.67,-33.77,-35.65,0,*5E
1508465023.94,3890,14.63,73878.8,-0.67,-33.77,-35.77,0,*55
1508465025.21,3891,14.63,73876.5,-0.67,-33.89,-35.65,0,*56
1508465026.43,3892,14.63,73876.8,-0.61,-33.67,-35.53,0,*56
1508465027.67,3893,14.63,73878.8,-0.63,-33.55,-35.53,0,*54
1508465028.94,3894,14.63,73876.0,-0.63,-33.31,-35.23,0,*56
1508465030.21,3895,14.63,73876.0,-0.63,-33.31,-35.23,0,*57
1508465031.45,3896,14.63,73872.0,-0.63,-33.15,-35.07,0,*54
1508465032.7,3897,14.63,73874.8,-0.63,-33.37,-35.41,0,*57
1508465033.95,3898,14.63,73878.5,-0.63,-33.67,-35.53,0,*5E
1508465035.21,3899,14.63,73876.0,-0.63,-33.73,-35.71,0,*5A
1508465036.41,3900,14.63,73874.3,-0.61,-33.95,-35.89,0,*56
1508465037.66,3901,14.63,73876.3,-0.63,-34.25,-36.25,0,*5C
1508465038.91,3902,14.63,73876.0,-0.63,-33.73,-35.71,0,*59
1508465040.16,3903,14.63,73880.8,-0.61,-33.73,-35.53,0,*5A
1508465041.39,3904,14.63,73882.3,-0.63,-33.83,-35.71,0,*50
1508465042.62,3905,14.63,73880.0,-0.63,-34.07,-35.89,0,*5D
1508465043.85,3906,14.63,73878.8,-0.63,-34.07,-36.07,0,*5B
1508465045.1,3907,14.63,73876.3,-0.63,-33.95,-35.95,0,*5E
1508465046.33,3908,14.63,73882.3,-0.63,-33.83,-35.71,0,*5C
1508465047.58,3909,14.63,73880.5,-0.63,-33.95,-35.95,0,*50
1508465048.8,3910,14.63,73878.3,-0.63,-34.13,-36.07,0,*59
1508465050.08,3911,14.63,73882.3,-0.67,-34.19,-36.13,0,*53
1508465051.3,3912,14.63,73882.5,-0.69,-33.77,-35.71,0,*56
1508465052.57,3913,14.63,73880.0,-0.63,-33.49,-35.41,0,*53
1508465053.79,3914,14.63,73882.0,-0.67,-33.55,-35.59,0,*54
1508465055.03,3915,14.63,73878.3,-0.67,-33.61,-35.59,0,*52
1508465056.29,3916,14.63,73880.3,-0.67,-34.13,-35.95,0,*53
1508465057.56,3917,14.63,73880.3,-0.67,-33.61,-35.65,0,*5F
1508465058.79,3918,14.63,73878.3,-0.67,-33.95,-36.01,0,*5A
1508465060.03,3919,14.63,73876.5,-0.67,-34.19,-36.19,0,*51
1508465061.27,3920,14.63,73882.3,-0.67,-34.13,-36.01,0,*58
1508465062.48,3921,14.63,73880.3,-0.69,-34.19,-36.07,0,*5B
1508465063.73,3922,14.63,73876.0,-0.67,-34.31,-36.19,0,*53
1508465064.98,3923,14.63,73882.8,-0.69,-34.35,-36.37,0,*54
1508465066.17,3924,14.63,73878.5,-0.69,-34.07,-36.07,0,*51
1508465067.39,3925,14.63,73880.5,-0.69,-33.61,-35.71,0,*55
1508465068.61,3926,14.63,73880.0,-0.69,-33.49,-35.47,0,*59
1508465069.87,3927,14.63,73878.3,-0.67,-33.73,-35.77,0,*5C
1508465071.09,3928,14.63,73876.3,-0.69,-34.19,-36.19,0,*5D
1508465072.33,3929,14.63,73878.3,-0.67,-34.13,-36.01,0,*51
1508465073.52,3930,14.63,73878.0,-0.69,-34.07,-36.07,0,*54
1508465074.78,3931,14.63,73872.8,-0.67,-34.13,-35.95,0,*56
1508465076.0,3932,14.63,73878.5,-0.69,-34.19,-36.19,0,*56
1508465077.27,3933,14.63,73878.8,-0.67,-34.19,-36.13,0,*53
1508465078.52,3934,14.63,73878.8,-0.71,-34.41,-36.25,0,*5B
1508465079.74,3935,14.63,73878.8,-0.71,-34.41,-36.43,0,*5A
1508465081.02,3936,14.63,73876.5,-0.71,-34.53,-36.25,0,*5A
1508465082.25,3937,14.63,73880.3,-0.73,-34.65,-36.43,0,*5C
1508465083.47,3938,14.63,73878.0,-0.71,-34.59,-36.43,0,*5E
1508465084.68,3939,14.63,73878.0,-0.73,-34.59,-36.55,0,*5A
1508465085.95,3940,14.63,73878.5,-0.71,-34.35,-36.49,0,*51
1508465087.19,3941,14.63,73882.0,-0.71,-34.19,-36.07,0,*54
1508465088.45,3942,14.63,73876.3,-0.73,-34.01,-35.95,0,*54
1508465089.67,3943,14.63,73878.3,-0.75,-34.07,-36.07,0,*5D
1508465090.87,3944,14.63,73876.8,-0.73,-34.07,-36.07,0,*5C
1508465092.08,3945,14.63,73878.0,-0.73,-34.25,-36.13,0,*58
1508465093.3,3946,14.63,73878.5,-0.73,-34.25,-36.13,0,*5B
1508465094.55,3947,14.63,73878.3,-0.75,-33.89,-35.77,0,*5C
1508465095.8,3948,14.63,73874.8,-0.75,-33.89,-35.77,0,*53
1508465097.06,3949,14.63,73878.5,-0.73,-34.01,-35.95,0,*5F
1508465098.31,3950,14.63,73876.3,-0.73,-33.89,-35.95,0,*50
1508465099.52,3951,14.63,73876.3,-0.73,-34.25,-36.13,0,*5D
1508465100.8,3952,14.63,73878.0,-0.75,-34.31,-36.25,0,*58
1508465102.05,3953,14.63,73878.0,-0.75,-34.47,-36.49,0,*52
1508465103.3,3954,14.63,73876.8,-0.75,-34.41,-36.25,0,*59
1508465104.53,3955,14.63,73880.3,-0.75,-34.07,-36.07,0,*5A
1508465105.73,3956,14.63,73880.3,-0.77,-33.95,-36.01,0,*51
1508465106.96,3957,14.63,73878.8,-0.77,-33.73,-35.59,0,*56
1508465108.22,3958,14.63,73878.8,-0.75,-33.31,-35.23,0,*50
1508465109.47,3959,14.63,73880.3,-0.75,-33.37,-35.23,0,*57
1508465110.73,3960,14.63,73878.0,-0.75,-33.73,-35.71,0,*5A
1508465111.94,3961,14.63,73882.3,-0.75,-34.25,-36.07,0,*5D
1508465113.19,3962,14.63,73876.5,-0.75,-34.25,-36.25,0,*5E
1508465114.41,3963,14.63,73878.3,-0.75,-34.25,-36.07,0,*5F
1508465115.64,3964,14.63,73882.5,-0.77,-34.47,-36.37,0,*5D
1508465116.86,3965,14.63,73880.8,-0.75,-34.41,-36.31,0,*5E
1508465118.08,3966,14.63,73882.3,-0.77,-34.35,-36.31,0,*5C
1508465119.36,3967,14.63,73880.5,-0.75,-34.31,-36.13,0,*5B
1508465120.63,3968,14.63,73880.5,-0.75,-34.31,-36.13,0,*54
1508465121.85,3969,14.63,73880.0,-0.77,-34.35,-36.19,0,*59
1508465123.07,3970,14.63,73880.8,-0.77,-34.19,-36.19,0,*5F
1508465124.31,3971,14.63,73882.5,-0.77,-34.07,-35.95,0,*56
1508465125.55,3972,14.63,73880.8,-0.77,-33.89,-35.65,0,*5B
1508465126.77,3973,14.63,73880.8,-0.77,-34.13,-36.13,0,*5C
1508465128.0,3974,14.63,73882.5,-0.77,-34.07,-35.95,0,*53
1508465129.23,3975,14.63,73882.3,-0.77,-34.19,-36.01,0,*53
1508465130.48,3976,14.63,73880.5,-0.77,-34.31,-36.13,0,*59
1508465131.71,3977,14.63,73880.8,-0.79,-34.13,-36.01,0,*55
1508465132.95,3978,14.63,73882.5,-0.79,-34.07,-36.01,0,*5F
1508465134.2,3979,14.63,73882.0,-0.79,-34.07,-36.13,0,*5D
1508465135.4,3980,14.63,73880.0,-0.81,-33.95,-35.89,0,*50
1508465136.67,3981,14.63,73882.3,-0.79,-33.77,-35.65,0,*58
1508465137.94,3982,14.63,73878.5,-0.79,-33.77,-35.65,0,*5B
1508465139.14,3983,14.63,73882.8,-0.77,-33.55,-35.47,0,*54
1508465140.36,3984,14.63,73882.0,-0.77,-33.43,-35.29,0,*5C
1508465141.65,3985,14.63,73882.8,-0.75,-33.73,-35.83,0,*5C
1508465142.9,3986,14.63,73880.0,-0.77,-33.77,-35.83,0,*59
1508465144.12,3987,14.63,73878.0,-0.77,-33.77,-35.77,0,*53
1508465145.35,3988,14.63,73882.8,-0.77,-33.77,-35.77,0,*5C
1508465146.58,3989,14.63,73884.0,-0.77,-33.77,-35.77,0,*5D
1508465147.83,3990,14.63,73882.3,-0.75,-33.67,-35.53,0,*50
1508465149.03,3991,14.63,73880.8,-0.77,-33.55,-35.47,0,*57
1508465150.25,3992,14.63,73882.5,-0.77,-33.37,-35.07,0,*54
1508465151.5,3993,14.63,73880.8,-0.75,-33.31,-35.13,0,*54
1508465152.72,3994,14.63,73882.5,-0.77,-33.43,-35.29,0,*5D
1508465153.97,3995,14.63,73880.0,-0.75,-33.31,-35.17,0,*56
1508465155.24,3996,14.63,73880.3,-0.75,-33.31,-35.41,0,*56
1508465156.5,3997,14.63,73882.3,-0.75,-33.73,-35.77,0,*54
1508465157.77,3998,14.63,73876.3,-0.75,-33.49,-35.23,0,*53
1508465158.99,3999,14.63,73878.5,-0.73,-33.31,-35.17,0,*5C
1508465160.18,4000,14.63,73880.8,-0.73,-33.83,-35.71,0,*5B
1508465161.38,4001,14.63,73878.5,-0.73,-33.83,-35.71,0,*5A
1508465162.61,4002,14.63,73880.5,-0.73,-34.07,-35.95,0,*58
1508465163.84,4003,14.63,73882.3,-0.73,-34.01,-35.89,0,*52
1508465165.06,4004,14.63,73876.8,-0.73,-33.67,-35.53,0,*55
1508465166.25,4005,14.63,73878.5,-0.73,-33.83,-35.59,0,*54
1508465167.48,4006,14.63,73876.0,-0.75,-33.37,-35.17,0,*54
1508465168.75,4007,14.63,73878.3,-0.75,-33.49,-35.41,0,*5F
1508465170.02,4008,14.63,73876.8,-0.75,-33.31,-35.23,0,*5B
1508465171.24,4009,14.63,73878.5,-0.73,-33.55,-35.53,0,*59
1508465172.44,4010,14.63,73876.5,-0.73,-33.83,-35.77,0,*5C
1508465173.7,4011,14.63,73876.8,-0.73,-34.01,-35.95,0,*5C
1508465174.94,4012,14.63,73880.0,-0.75,-34.01,-36.07,0,*51
1508465176.17,4013,14.63,73878.5,-0.75,-34.13,-36.07,0,*53
1508465177.42,4014,14.63,73878.3,-0.75,-34.01,-36.07,0,*57
1508465178.68,4015,14.63,73882.0,-0.75,-34.07,-35.95,0,*58
1508465179.9,4016,14.63,73876.0,-0.75,-34.07,-36.07,0,*53
1508465181.11,4017,14.63,73878.3,-0.77,-34.07,-36.01,0,*56
1508465182.36,4018,14.63,73878.5,-0.75,-33.89,-35.77,0,*58
1508465183.62,4019,14.63,73876.0,-0.75,-33.89,-35.89,0,*58
1508465184.84,4020,14.63,73876.0,-0.77,-33.95,-35.83,0,*57
1508465186.06,4021,14.63,73876.3,-0.77,-34.13,-36.13,0,*55
1508465187.28,4022,14.63,73880.3,-0.77,-34.13,-36.13,0,*56
1508465188.53,4023,14.63,73878.5,-0.77,-34.31,-36.13,0,*57
1508465189.78,4024,14.63,73882.3,-0.77,-34.19,-36.13,0,*5A
1508465190.98,4025,14.63,73880.0,-0.77,-34.07,-36.01,0,*57
1508465192.23,4026,14.63,73880.3,-0.77,-33.89,-35.83,0,*5C
1508465193.46,4027,14.63,73876.0,-0.77,-34.07,-36.13,0,*56
1508465194.7,4028,14.63,73878.3,-0.77,-34.19,-36.13,0,*56
1508465195.91,4029,14.63,73882.8,-0.77,-34.13,-36.01,0,*5E
1508465197.11,4030,14.63,73880.0,-0.77,-34.13,-36.01,0,*56
1508465198.31,4031,14.63,73882.8,-0.81,-34.25,-36.19,0,*52
1508465199.56,4032,14.63,73882.8,-0.79,-33.95,-35.83,0,*5A
1508465200.81,4033,14.63,73882.0,-0.79,-33.95,-35.83,0,*5B
1508465202.04,4034,14.63,73882.3,-0.79,-34.07,-36.01,0,*59
1508465203.32,4035,14.63,73876.3,-0.79,-34.19,-36.13,0,*54
1508465204.58,4036,14.63,73880.3,-0.79,-33.61,-35.65,0,*5D
1508465205.86,4037,14.63,73882.5,-0.79,-33.73,-35.65,0,*5F
1508465207.13,4038,14.63,73876.3,-0.79,-33.89,-36.13,0,*57
1508465208.38,4039,14.63,73876.3,-0.79,-34.19,-36.19,0,*52
1508465209.63,4040,14.63,73876.5,-0.79,-33.95,-35.95,0,*58
1508465210.86,4041,14.63,73882.0,-0.79,-34.07,-36.01,0,*5B
1508465212.12,4042,14.63,73880.5,-0.79,-33.95,-35.95,0,*5A
1508465213.34,4043,14.63,73882.0,-0.79,-33.55,-35.47,0,*58
1508465214.59,4044,14.63,73882.5,-0.79,-33.37,-35.23,0,*59
1508465215.83,4045,14.63,73880.5,-0.79,-33.21,-35.07,0,*59
1508465217.05,4046,14.63,73882.3,-0.77,-33.09,-34.89,0,*59
1508465218.29,4047,14.63,73880.8,-0.77,-33.61,-35.65,0,*55
1508465219.51,4048,14.56,73878.8,-0.77,-33.61,-35.59,0,*55
1508465220.76,4049,14.63,73884.5,-0.77,-33.89,-35.83,0,*55
1508465221.98,4050,14.63,73884.0,-0.77,-33.95,-35.95,0,*57
1508465223.21,4051,14.63,73882.3,-0.77,-33.95,-35.83,0,*51
1508465224.41,4052,14.63,73884.3,-0.77,-34.07,-36.01,0,*57
1508465225.66,4053,14.63,73882.8,-0.77,-34.31,-36.13,0,*50
1508465226.88,4054,14.63,73880.3,-0.77,-34.31,-36.19,0,*5D
1508465228.08,4055,14.63,73884.3,-0.77,-34.13,-36.19,0,*5C
1508465229.3,4056,14.63,73884.3,-0.77,-34.31,-36.19,0,*5F
1508465230.52,4057,14.63,73882.5,-0.77,-34.31,-36.19,0,*5E
1508465231.75,4058,14.63,73886.5,-0.79,-34.13,-36.01,0,*56
1508465233.01,4059,14.63,73884.0,-0.79,-33.95,-35.95,0,*50
1508465234.25,4060,14.63,73882.8,-0.79,-34.31,-36.19,0,*54
1508465235.47,4061,14.63,73886.3,-0.81,-34.41,-36.37,0,*59
1508465236.75,4062,14.63,73884.0,-0.79,-33.89,-35.83,0,*52
1508465238.02,4063,14.63,73882.5,-0.79,-33.77,-35.83,0,*52
1508465239.3,4064,14.56,73882.8,-0.79,-33.77,-35.83,0,*55
1508465240.5,4065,14.63,73882.0,-0.81,-33.83,-35.71,0,*55
1508465241.73,4066,14.63,73882.3,-0.81,-33.95,-35.83,0,*5C
1508465242.98,4067,14.63,73884.3,-0.79,-34.07,-36.13,0,*5C
1508465244.21,4068,14.63,73884.3,-0.81,-34.25,-36.25,0,*51
1508465245.45,4069,14.63,73882.0,-0.79,-34.19,-36.19,0,*57
1508465246.68,4070,14.63,73882.8,-0.81,-34.19,-36.07,0,*57
1508465247.87,4071,14.56,73880.5,-0.81,-34.25,-36.19,0,*56
1508465249.13,4072,14.63,73880.0,-0.79,-34.07,-35.95,0,*55
1508465250.41,4073,14.63,73884.5,-0.79,-34.19,-36.13,0,*56
1508465251.6,4074,14.63,73882.8,-0.81,-34.25,-36.07,0,*5C
1508465252.83,4075,14.63,73886.0,-0.81,-34.19,-36.19,0,*5D
1508465254.1,4076,14.63,73882.0,-0.79,-34.31,-36.13,0,*59
1508465255.31,4077,14.63,73882.5,-0.81,-33.95,-35.89,0,*56
1508465256.56,4078,14.63,73886.0,-0.79,-34.13,-36.13,0,*57
1508465257.75,4079,14.63,73882.3,-0.81,-34.25,-36.19,0,*5E
1508465258.95,4080,14.63,73884.0,-0.81,-33.83,-35.71,0,*5E
1508465260.21,4081,14.63,73886.3,-0.79,-33.77,-35.77,0,*55
1508465261.46,4082,14.63,73880.8,-0.79,-33.73,-35.47,0,*51
1508465262.74,4083,14.63,73882.8,-0.79,-33.73,-35.65,0,*50
1508465263.94,4084,14.63,73880.0,-0.81,-33.83,-35.71,0,*5A
1508465265.14,4085,14.63,73880.8,-0.81,-33.83,-35.71,0,*5B
1508465266.38,4086,14.63,73882.0,-0.79,-33.61,-35.59,0,*59
1508465267.63,4087,14.63,73880.3,-0.79,-33.37,-35.23,0,*56
1508465268.87,4088,14.56,73880.3,-0.79,-33.61,-35.59,0,*57
1508465270.13,4089,14.63,73880.0,-0.79,-34.13,-35.95,0,*54
1508465271.38,4090,14.63,73882.8,-0.79,-33.61,-35.59,0,*5E
1508465272.6,4091,14.63,73882.5,-0.79,-33.55,-35.47,0,*57
1508465273.84,4092,14.63,73882.0,-0.79,-33.61,-35.59,0,*5C
1508465275.07,4093,14.63,73882.5,-0.79,-33.37,-35.47,0,*51
1508465276.32,4094,14.56,73876.8,-0.81,-33.77,-35.65,0,*55
1508465277.56,4095,14.63,73882.5,-0.81,-33.61,-35.65,0,*53
1508465278.78,4096,14.63,73882.5,-0.79,-33.55,-35.59,0,*5F
1508465280.05,4097,14.63,73882.5,-0.79,-33.77,-35.65,0,*51
1508465281.3,4098,14.63,73884.8,-0.79,-33.95,-35.95,0,*5D
1508465282.57,4099,14.63,73886.0,-0.79,-33.77,-35.65,0,*5F
1508465283.84,4100,14.63,73880.5,-0.79,-33.77,-35.65,0,*5E
1508465285.07,4101,14.56,73880.3,-0.77,-33.43,-35.29,0,*5E
1508465286.27,4102,14.63,73882.3,-0.77,-33.37,-35.17,0,*53
1508465287.49,4103,14.63,73882.5,-0.77,-33.27,-35.29,0,*5E
1508465288.74,4104,14.63,73882.5,-0.77,-33.73,-35.65,0,*50
1508465289.96,4105,14.56,73878.8,-0.77,-33.61,-35.59,0,*5D
1508465291.21,4106,14.63,73880.0,-0.75,-33.73,-35.71,0,*55
1508465292.43,4107,14.63,73882.0,-0.77,-33.61,-35.47,0,*50
1508465293.65,4108,14.63,73878.0,-0.77,-33.43,-35.29,0,*57
1508465294.85,4109,14.63,73880.5,-0.77,-33.95,-36.01,0,*54
1508465296.09,4110,14.63,73882.0,-0.79,-34.07,-36.01,0,*5E
1508465297.31,4111,14.56,73880.5,-0.77,-34.13,-36.13,0,*57
1508465298.56,4112,14.56,73878.5,-0.77,-33.89,-35.83,0,*5A
1508465299.78,4113,14.56,73876.3,-0.77,-33.77,-35.77,0,*51
1508465301.03,4114,14.63,73880.0,-0.77,-33.89,-35.83,0,*5C
1508465302.26,4115,14.56,73878.8,-0.77,-33.95,-35.95,0,*57
1508465303.48,4116,14.63,73882.3,-0.77,-33.89,-35.77,0,*55